sat.trackr.live / text

‹ back to catalog

RESURS-DK 1

NORAD 29228 · 2006-021A

PAYLOAD ACTIVE UNKNOWN

§ Identity

Operator
Country
CIS
Launch date
2006-06-15
Launch site
TYMSC
Launch vehicle
Mass (kg)
RCS (m²)
8.77

Purposes: earth_obs

External: N2YO · Heavens-Above · Gunter

§ Orbital elements

Epoch: 2026-09-08T21:53:51.198432Z

Period
95.14 min
Inclination
69.9303°
Eccentricity
0.0005581
Mean motion
15.13494497 rev/d
Perigee alt
521.7 km
Apogee alt
529.4 km
Semi-major
6,903.7 km
B*
9.1618e-5
RAAN
122.7739°
Arg perigee
218.5556°
Mean anomaly
141.5213°
Rev number
11,524

§ Raw data

RESURS-DK 11 29228U 06021A   26251.91239813  .00001535  00000+0  91618-4 0  99962 29228  69.9303 122.7739 0005581 218.5556 141.5213 15.13494497115244

JSON: /api/v1/satellites/29228 · /tle

For live sub-satellite position, see the globe view (requires WebGL).

§ Visibility from observer

Set your observer location to see the next 7 days of passes ≥ 10°. The values pass through the URL so the page stays shareable.

No JS? Fill the form by hand. The geolocation button needs JavaScript.